Miscellaneous Local Product
Issued by NWS Hastings, NE

Home | Current Version | Previous Version | Graphics & Text | Print | Product List | Glossary On
Versions: 1 2 3 4 5 6 7 8 9 10 11 12 13 14 15 16 17 18 19 20 21 22 23 24 25 26 27 28 29 30 31 32 33 34 35 36 37 38 39 40 41 42 43 44 45 46 47 48 49 50
000
AXUS43 KGID 220502
MISGRI

GID CWA HOURLY WEATHER ROUNDUP
NATIONAL WEATHER SERVICE HASTINGS NE
1200 AM CDT TUE APR 22 2014

NOTE: "FAIR" INDICATES FEW OR NO CLOUDS BELOW 12,000 FEET WITH NO
SIGNIFICANT WEATHER AND/OR OBSTRUCTIONS TO VISIBILITY.

...SOUTH CENTRAL NEBRASKA...

CITY           SKY/WX    TMP DP  RH WIND       PRES   REMARKS
GRAND ISLAND   CLEAR     48  31  51 NE7       30.18R
HASTINGS       CLEAR     52  29  41 NE9       30.17R
KEARNEY        CLEAR     52  28  40 N5        30.18S
ORD            CLEAR     46  28  49 E5        30.16F
YORK           CLEAR     50  30  46 N5        30.17R
AURORA         CLEAR     48  32  52 NE8       30.17R
LEXINGTON      CLEAR     47  33  57 CALM      30.18S
HOLDREGE       CLEAR     48  29  47 NE7       30.17S
HEBRON         CLEAR     50  32  49 CALM      30.16R

...NEBRASKA PANHANDLE...

CITY           SKY/WX    TMP DP  RH WIND       PRES   REMARKS
CHADRON        CLEAR     49  31  49 SE6       30.09F
ALLIANCE       MOCLDY    41  30  65 SE9       30.12F
SCOTTSBLUFF    PTCLDY    48  30  49 E9        30.11F
SIDNEY         CLEAR     49  29  46 SE12      30.16S

...WESTERN AND NORTH CENTRAL NEBRASKA...

CITY           SKY/WX    TMP DP  RH WIND       PRES   REMARKS
VALENTINE      CLEAR     50  28  42 E7        30.15S
AINSWORTH      CLEAR     45  29  55 E8        30.16F
ONEILL         CLEAR     51  28  40 CALM      30.17S
BROKEN BOW     CLEAR     42  29  59 CALM      30.17S
IMPERIAL       CLEAR     45  28  51 SE9       30.17F
NORTH PLATTE   CLEAR     42  28  57 E6        30.17S
MCCOOK         PTCLDY    53  31  42 E3        30.17F

...EASTERN NEBRASKA...

CITY           SKY/WX    TMP DP  RH WIND       PRES   REMARKS
NORFOLK        CLEAR     47  31  53 CALM      30.16S
SO SIOUX CITY  CLEAR     51  32  48 N7        30.16R
TEKAMAH        CLEAR     47  30  51 N9        30.15R
COLUMBUS       CLEAR     46  27  46 N8        30.17F
ALBION         CLEAR     49  28  44 NE3       30.17S
OMAHA EPPLEY   CLEAR     50  32  50 N7        30.14R
OFFUTT AFB     CLEAR     58  32  38 N9        30.13R
MILLARD        CLEAR     58  31  35 N7        30.13R
LINCOLN        CLEAR     50  31  48 N9        30.15R
NEBRASKA CITY  CLEAR     55  29  37 N7        30.11R
BEATRICE       CLEAR     55  29  36 N10       30.13R
FALLS CITY     CLEAR     54  30  40 NW5       30.09R

...NORTHERN KANSAS...

CITY           SKY/WX    TMP DP  RH WIND       PRES   REMARKS
GOODLAND       PTCLDY    47  30  51 S10       30.20S
HILL CITY      CLEAR     48  37  65 CALM      30.17S
PHILLIPSBURG   CLEAR     54  30  40 CALM      30.16S
SMITH CENTER   CLEAR     54  27  35 NE9       30.16S
BELOIT         CLEAR     46  36  66 N7        30.14R
HAYS           CLEAR     48  36  61 NE3       30.15F
RUSSELL        CLEAR     55  31  39 N6        30.14R
CONCORDIA      CLEAR     50  29  44 NW8       30.14R
SALINA         CLEAR     52  28  39 NW5       30.12R
TOPEKA         CLEAR     57  36  45 N9        30.08R



USA.gov is the U.S. government's official web portal to all federal, state and local government web resources and services.